Change the Weather History Date:

Friday, December 20, 2013

  Actual Average Record
Temperature  
Mean Temperature 46 °F -  
Max Temperature 50 °F - - ()
Min Temperature 41 °F - - ()
Degree Days  
Heating Degree Days 20    
Moisture  
Dew Point 39 °F    
Average Humidity 73    
Maximum Humidity 93    
Minimum Humidity 52    
Precipitation  
Precipitation 0.00 in - - ()
Sea Level Pressure  
Sea Level Pressure 30.04 in    
Wind  
Wind Speed 23 mph ()    
Max Wind Speed 38 mph    
Max Gust Speed -    
Visibility 8.0 miles    
Events Rain    
T = Trace of Precipitation, MM = Missing Value Source: Averaged Metar Reports

Daily Weather History Graph

Daily Weather History Graph

Search for Another Location

Airport or City:

Trip Planner

Search our weather history database for the weather conditions in past years. The results will help you decide how hot, cold, wet, or windy it might be!

Date:

Astronomy

Dec. 20, 2013 Rise Set
Actual Time 8:53 AM CET 4:34 PM CET
Civil Twilight 8:12 AM CET 5:16 PM CET
Nautical Twilight 7:28 AM CET 6:00 PM CET
Astronomical Twilight 6:46 AM CET 6:42 PM CET
Moon 8:02 PM CET (12/20) 10:19 AM CET (12/20)
Length of Visible Light 9h 03m
Length of Day
7h 40m
Waning Gibbous, 92% of the Moon is Illuminated
Dec 20
Waning Gibbous
Dec 25
Last Quarter
Jan 1
New
Jan 8
First Quarter
Jan 16
Full

Hourly Weather History & Observations

Time (CET) Temp. Dew Point Humidity Pressure Visibility Wind Dir Wind Speed Gust Speed Precip Events Conditions
12:00 AM 48 °F 42 °F 72% 29.77 in 10 mi 22.4 mph - -   Scattered Clouds
12:25 AM 48.2 °F 42.8 °F 82% 29.77 in 6.2 mi North - - N/A   Partly Cloudy
12:55 AM 48.2 °F 41.0 °F 76% 29.80 in 6.2 mi North - - N/A   Scattered Clouds
1:00 AM 44 °F 40 °F 79% 29.81 in 6 mi 31.3 mph - - Rain Drizzle
1:25 AM 42.8 °F 39.2 °F 87% 29.80 in 6.2 mi North - - N/A   Drizzle
1:55 AM 42.8 °F 41.0 °F 93% 29.80 in 6.2 mi North - - N/A Rain Light Rain
2:00 AM 44 °F 40 °F 79% 29.83 in 11 mi 24.6 mph - - Rain Light Drizzle
2:25 AM 44.6 °F 37.4 °F 76% 29.83 in 6.2 mi North - - N/A   Mostly Cloudy
2:55 AM 44.6 °F 37.4 °F 76% 29.86 in 6.2 mi North - - N/A   Mostly Cloudy
3:00 AM 45 °F 37 °F 66% 29.86 in 19 mi 20.1 mph - - Rain Drizzle
3:25 AM 46.4 °F 37.4 °F 71% 29.86 in 6.2 mi North - - N/A   Mostly Cloudy
3:55 AM 46.4 °F 39.2 °F 76% 29.86 in 6.2 mi North - - N/A   Scattered Clouds
4:00 AM 45 °F 38 °F 68% 29.89 in 22 mi 20.1 mph - -   Partly Cloudy
4:25 AM 44.6 °F 37.4 °F 76% 29.89 in 6.2 mi North - - N/A   Scattered Clouds
4:55 AM 46.4 °F 37.4 °F 71% 29.92 in 6.2 mi North - - N/A   Partly Cloudy
5:00 AM 46 °F 36 °F 60% 29.92 in 19 mi 20.1 mph - -   Partly Cloudy
5:25 AM 46.4 °F 37.4 °F 71% 29.89 in 6.2 mi North - - N/A   Partly Cloudy
5:55 AM 46.4 °F 35.6 °F 66% 29.92 in 6.2 mi North - - N/A   Partly Cloudy
6:00 AM 46 °F 36 °F 57% 29.95 in 17 mi 20.1 mph - -   Partly Cloudy
6:25 AM 46.4 °F 37.4 °F 71% 29.95 in 6.2 mi North - - N/A   Unknown
6:55 AM 46.4 °F 37.4 °F 71% 29.95 in 6.2 mi North - - N/A   Unknown
7:00 AM 46 °F 34 °F 52% 29.98 in 19 mi 24.6 mph - -   Partly Cloudy
7:25 AM 46.4 °F 33.8 °F 62% 29.98 in 6.2 mi North - - N/A   Unknown
7:55 AM 46.4 °F 35.6 °F 66% 30.01 in 6.2 mi North - - N/A   Partly Cloudy
8:00 AM 46 °F 36 °F 57% 30.01 in 16 mi 24.6 mph - -   Scattered Clouds
8:25 AM 46.4 °F 35.6 °F 66% 30.01 in 6.2 mi North - - N/A   Partly Cloudy
8:55 AM 46.4 °F 37.4 °F 71% 30.01 in 6.2 mi North - - N/A   Unknown
9:00 AM 46 °F 36 °F 60% 30.04 in 14 mi 29.1 mph - -   Scattered Clouds
9:25 AM 46.4 °F 37.4 °F 71% 30.04 in 6.2 mi North - - N/A   Unknown
9:55 AM 46.4 °F 35.6 °F 66% 30.04 in 6.2 mi North - - N/A   Partly Cloudy
10:00 AM 46 °F 38 °F 66% 30.07 in 13 mi 26.8 mph - -   Scattered Clouds
10:25 AM 46.4 °F 39.2 °F 76% 30.06 in 6.2 mi North - - N/A   Partly Cloudy
10:55 AM 46.4 °F 37.4 °F 71% 30.09 in 6.2 mi North - - N/A   Unknown
11:00 AM 46 °F 38 °F 65% 30.11 in 12 mi 26.8 mph - -   Scattered Clouds
11:25 AM 46.4 °F 37.4 °F 71% 30.09 in 6.2 mi North - - N/A   Partly Cloudy
11:55 AM 46.4 °F 39.2 °F 76% 30.09 in 6.2 mi North - - N/A   Partly Cloudy
12:00 PM 46 °F 37 °F 63% 30.12 in 12 mi 24.6 mph - -   Scattered Clouds
12:25 PM 46.4 °F 39.2 °F 76% 30.12 in 6.2 mi North - - N/A   Unknown
12:55 PM 46.4 °F 37.4 °F 71% 30.12 in 6.2 mi North - - N/A   Partly Cloudy
1:00 PM 47 °F 39 °F 64% 30.14 in 12 mi 26.8 mph - -   Partly Cloudy
1:25 PM 46.4 °F 37.4 °F 71% 30.12 in 6.2 mi North - - N/A   Partly Cloudy
1:55 PM 46.4 °F 37.4 °F 71% 30.15 in 6.2 mi North - - N/A   Unknown
2:00 PM 47 °F 39 °F 64% 30.16 in 12 mi 26.8 mph - -   Scattered Clouds
2:25 PM 46.4 °F 39.2 °F 76% 30.15 in 6.2 mi North - - N/A   Partly Cloudy
2:55 PM 46.4 °F 39.2 °F 76% 30.15 in 6.2 mi North - - N/A   Partly Cloudy
3:00 PM 47 °F 39 °F 65% 30.17 in 11 mi 26.8 mph - -   Scattered Clouds
3:25 PM 48.2 °F 39.2 °F 71% 30.15 in 6.2 mi North - - N/A   Partly Cloudy
3:55 PM 48.2 °F 41.0 °F 76% 30.15 in 6.2 mi North - - N/A   Partly Cloudy
4:00 PM 48 °F 41 °F 68% 30.18 in 9 mi 26.8 mph - -   Scattered Clouds
4:25 PM 48.2 °F 39.2 °F 71% 30.15 in 6.2 mi North - - N/A   Partly Cloudy
4:55 PM 48.2 °F 39.2 °F 71% 30.15 in 6.2 mi North - - N/A   Unknown
5:00 PM 49 °F 41 °F 64% 30.18 in 10 mi 29.1 mph - -  
5:25 PM 48.2 °F 41.0 °F 76% 30.15 in 6.2 mi North - - N/A   Unknown
5:55 PM 50.0 °F 41.0 °F 71% 30.18 in 6.2 mi North - - N/A   Unknown
6:00 PM 49 °F 41 °F 65% 30.18 in 10 mi 29.1 mph - -  
6:25 PM 50.0 °F 41.0 °F 71% 30.15 in 6.2 mi North - - N/A   Unknown
6:55 PM 50.0 °F 42.8 °F 76% 30.15 in 6.2 mi North - - N/A   Unknown
7:00 PM 50 °F 42 °F 67% 30.17 in 8 mi 31.3 mph - -   Partly Cloudy
7:25 PM 50.0 °F 44.6 °F 82% 30.15 in 6.2 mi North - - N/A   Unknown
7:55 PM 48.2 °F 44.6 °F 87% 30.12 in 6.2 mi North - - N/A   Scattered Clouds
8:00 PM 49 °F 45 °F 79% 30.15 in 7 mi 33.6 mph - -   Scattered Clouds
8:25 PM 48.2 °F 44.6 °F 87% 30.12 in 6.2 mi North - - N/A   Scattered Clouds
8:55 PM 48.2 °F 44.6 °F 87% 30.12 in 6.2 mi North - - N/A   Mostly Cloudy
9:00 PM 48 °F 44 °F 82% 30.14 in 7 mi 33.6 mph - -   Scattered Clouds
9:25 PM 48.2 °F 44.6 °F 87% 30.12 in 6.2 mi North - - N/A   Mostly Cloudy
9:55 PM 48.2 °F 42.8 °F 82% 30.12 in 6.2 mi North - - N/A   Scattered Clouds
10:00 PM 48 °F 42 °F 73% 30.11 in 7 mi 38.0 mph - -   Overcast
10:25 PM 48.2 °F 42.8 °F 82% 30.09 in 6.2 mi North - - N/A   Partly Cloudy
10:55 PM 48.2 °F 41.0 °F 76% 30.06 in 6.2 mi North - - N/A   Partly Cloudy
11:00 PM 47 °F 42 °F 75% 30.09 in 8 mi 38.0 mph - -   Overcast
11:25 PM 48.2 °F 42.8 °F 82% 30.09 in 6.2 mi North - - N/A   Partly Cloudy
11:55 PM 48.2 °F 42.8 °F 82% 30.06 in 6.2 mi North - - N/A   Scattered Clouds